"Pseudo-MPEC" for P118ckw

Created 2020 Oct 20 16:07:32 UT using Find_Orb

Click here for an explanation of pseudo-MPECs

 
 Astrometry: 
     P118ckw  C2020 10 173tr3)#R-Rf%exAstrometry*^hTD!ky'x=r]4$l:kf3$pj1WBMwGF51
     P118ckw  C2020 10 17lO+Qq:Os+NT]EL@3+fNv-aUW+f4NmeO`:[keO@^4H8rG?8[JY/fJF51
     P118ckw  C2020 10 17/CUO1)CP3]DnN/wnn1p`)=%vx)U-^A1mgCOJ@%]#I+Q2(y:oACfFF51
     P118ckw  C2020 10 17?e*NLho^53K2ORu3/x:1Gmk;b28O3Xn=`@_VXtC]a:39iF#h=S?1F51
     P118ckw KC2020 10 18.24496602 06 05.93 -27 04 35.3    ~AI6b 21.12GVNEOCPI52
     P118ckw KC2020 10 18.25371202 06 05.68 -27 04 36.6    ~AI6b 21.03GVNEOCPI52
     P118ckw KC2020 10 18.26241002 06 05.37 -27 04 37.6    ~AI6b 20.90GVNEOCPI52
     P118ckw KC2020 10 19DZMWsVD+J;kE!WNy;59N)(N,JF##fhHYMLWXQr$PrY-XH6KP?T$%474
     P118ckw KC2020 10 19XK(\kK^kgq?redacted;mNQDF/Nri\clickrG*bM5[[m`here9Cu474
     P118ckw KC2020 10 19cn3U5*N\2%'Xfor5U*XkWYPs,eUgX;'Q8explanationV:`jIuNw474
     P118ckw KC2020 10 19Xa#9slHXJ:5]D.j/cWgY8rKI329\-gZ?(72][ZaOIDsWh\uF#.8v474
     P118ckw KC2020 10 20.28837402 04 57.77 -27 09 14.9    ~AK7q 20.31GVNEOCPI52
     P118ckw KC2020 10 20.29533202 04 57.53 -27 09 15.8    ~AK7q 21.32GVNEOCPI52
     P118ckw KC2020 10 20.30234602 04 57.31 -27 09 16.4    ~AK7q 21.04GVNEOCPI52
     P118ckw KC2020 10 20.30937102 04 57.07 -27 09 18.0    ~AK7q 20.96GVNEOCPI52

Station data:
(474) Mount John Observatory, Lake Tekapo  (S43.987388 E170.464960)  New
   Zealand.  Observers A. C. Gilmore, P. M. Kilmartin. Measurer P. M.
   Kilmartin. 1.0-m f/7.7 reflector + CCD.
(F51) Pan-STARRS 1, Haleakala  (N20.707235 W156.255910)  US/Hawaii.
   Observers N. Primak, A. Schultz, S. Watters, J. Thiel, T. Goggia. Measurer
   PS1 Science Consortium. 1.8-m Ritchey-Chrétien + CCD.
(I52) Steward Observatory, Mt. Lemmon Station  (N32.442547 W110.788920)
   US/Arizona.  Observers T. A. Pruyne, B. M. Africano, E. J. Christensen, G.
   A. Farneth, D. C. Fuls, A. R. Gibbs, A. D. Grauer, H. Gröller, J. A.
   Johnson, R. A. Kowalski, S. M. Larson, G. J. Leonard, D. Rankin, R. L.
   Seaman, F. C. Shelly. 1.0-m reflector + CCD.

Orbital elements:  P118ckw
   Perihelion 2021 Jun 7.035202 +/- 167 TT =  0:50:41 (JD 2459372.535202)
Epoch 2020 Oct 20.0 TT = JDT 2459142.5   Ju: 0.1717           AutoNEOCP
M 341.52269038 +/- 9                (J2000 ecliptic)
n   0.08032383 +/- 0.0099           Peri.  290.87324 +/- 26
a   5.31993622 +/- 0.437            Node   112.55849 +/- 2.1
e   0.1129526 +/- 0.147             Incl.   29.89432 +/- 0.21
P  12.27                   H 14.5   G  0.15   U  9.7  
q 4.71903517 +/- 0.462    Q 5.92083727 +/- 1.48
From 15 observations 2020 Oct. 17-20; mean residual 0".21
Residuals in arcseconds: 
201017 F51  .07+  .04+    201018 I52  .27+  .25-    201019 474  .04-  .26-    
201017 F51  .03+  .10-    201018 I52  .08+  .05+    201020 I52  .13-  .06-    
201017 F51  .05-  .14+    201019 474  .04-  .12+    201020 I52  .14-  .07-    
201017 F51  .03-  .07+    201019 474  .09+  .29+    201020 I52  .14+  .22+    
201018 I52  .37-  .26-    201019 474  .04-  .57+    201020 I52  .16+  .49-    

Ephemerides (geocentric):
Date (UTC) HH   RA              Dec         delta   r     elong  mag " sig PA
---- -- -- --  -------------   -----------  ------ ------ -----  --- ---- ---
2020 10 20 16  02 04 45.087   -27 10 00.13  3.9349 4.7579 141.9 21.4 .348 165
2020 10 20 17  02 04 43.691   -27 10 05.24  3.9350 4.7579 141.9 21.4 .372 166
2020 10 20 18  02 04 42.294   -27 10 10.33  3.9350 4.7579 141.8 21.4 .397 166
2020 10 20 19  02 04 40.898   -27 10 15.40  3.9351 4.7578 141.8 21.4 .422 166
2020 10 20 20  02 04 39.501   -27 10 20.46  3.9352 4.7578 141.8 21.4 .448 166
2020 10 20 21  02 04 38.104   -27 10 25.49  3.9353 4.7578 141.8 21.4 .474 166
2020 10 20 22  02 04 36.707   -27 10 30.52  3.9354 4.7578 141.8 21.4 .501 166
2020 10 20 23  02 04 35.309   -27 10 35.52  3.9355 4.7578 141.8 21.4 .528 166
2020 10 21 00  02 04 33.912   -27 10 40.50  3.9356 4.7578 141.8 21.4 .556 167
2020 10 21 01  02 04 32.514   -27 10 45.47  3.9356 4.7578 141.8 21.4 .584 167
2020 10 21 02  02 04 31.117   -27 10 50.42  3.9357 4.7577 141.8 21.4 .613 167
2020 10 21 03  02 04 29.719   -27 10 55.35  3.9358 4.7577 141.8 21.4 .643 167
2020 10 21 04  02 04 28.321   -27 11 00.27  3.9359 4.7577 141.7 21.4 .673 167
2020 10 21 05  02 04 26.922   -27 11 05.16  3.9360 4.7577 141.7 21.4 .704 167
2020 10 21 06  02 04 25.524   -27 11 10.04  3.9361 4.7577 141.7 21.4 .735 167
2020 10 21 07  02 04 24.126   -27 11 14.91  3.9362 4.7577 141.7 21.4 .767 167
2020 10 21 08  02 04 22.727   -27 11 19.75  3.9363 4.7577 141.7 21.4 .799 167
2020 10 21 09  02 04 21.328   -27 11 24.58  3.9364 4.7576 141.7 21.4 .832 167
2020 10 21 10  02 04 19.930   -27 11 29.38  3.9365 4.7576 141.7 21.4 .865 167
2020 10 21 11  02 04 18.531   -27 11 34.17  3.9365 4.7576 141.7 21.4 .899 167
2020 10 21 12  02 04 17.131   -27 11 38.95  3.9366 4.7576 141.7 21.4 .934 168
2020 10 21 13  02 04 15.732   -27 11 43.70  3.9367 4.7576 141.7 21.4 .969 168
2020 10 21 14  02 04 14.333   -27 11 48.44  3.9368 4.7576 141.6 21.4 1.00 168
2020 10 21 15  02 04 12.933   -27 11 53.16  3.9369 4.7576 141.6 21.4 1.04 168
2020 10 21 16  02 04 11.534   -27 11 57.86  3.9370 4.7575 141.6 21.4 1.08 168
2020 10 21 17  02 04 10.134   -27 12 02.55  3.9371 4.7575 141.6 21.4 1.11 168
2020 10 21 18  02 04 08.734   -27 12 07.21  3.9372 4.7575 141.6 21.4 1.15 168
2020 10 21 19  02 04 07.334   -27 12 11.86  3.9373 4.7575 141.6 21.4 1.19 168
2020 10 21 20  02 04 05.934   -27 12 16.49  3.9374 4.7575 141.6 21.4 1.23 168
2020 10 21 21  02 04 04.534   -27 12 21.11  3.9375 4.7575 141.6 21.4 1.27 168
2020 10 21 22  02 04 03.134   -27 12 25.70  3.9376 4.7575 141.6 21.4 1.31 168
2020 10 21 23  02 04 01.734   -27 12 30.28  3.9377 4.7575 141.5 21.4 1.35 168
2020 10 22 00  02 04 00.333   -27 12 34.84  3.9378 4.7574 141.5 21.4 1.39 168
2020 10 22 01  02 03 58.933   -27 12 39.38  3.9379 4.7574 141.5 21.4 1.43 168
2020 10 22 02  02 03 57.532   -27 12 43.91  3.9380 4.7574 141.5 21.4 1.48 168
2020 10 22 03  02 03 56.131   -27 12 48.41  3.9381 4.7574 141.5 21.4 1.52 168
2020 10 22 04  02 03 54.730   -27 12 52.90  3.9382 4.7574 141.5 21.4 1.56 168
2020 10 22 05  02 03 53.329   -27 12 57.37  3.9383 4.7574 141.5 21.4 1.61 168
2020 10 22 06  02 03 51.928   -27 13 01.82  3.9384 4.7574 141.5 21.4 1.65 169
2020 10 22 07  02 03 50.527   -27 13 06.26  3.9385 4.7573 141.5 21.4 1.70 169
2020 10 22 08  02 03 49.126   -27 13 10.68  3.9386 4.7573 141.4 21.4 1.74 169
2020 10 22 09  02 03 47.725   -27 13 15.08  3.9387 4.7573 141.4 21.4 1.79 169
2020 10 22 10  02 03 46.323   -27 13 19.46  3.9388 4.7573 141.4 21.4 1.84 169
2020 10 22 11  02 03 44.922   -27 13 23.82  3.9389 4.7573 141.4 21.4 1.88 169
2020 10 22 12  02 03 43.520   -27 13 28.17  3.9390 4.7573 141.4 21.4 1.93 169
2020 10 22 13  02 03 42.119   -27 13 32.49  3.9391 4.7573 141.4 21.4 1.98 169
2020 10 22 14  02 03 40.717   -27 13 36.80  3.9392 4.7572 141.4 21.4 2.03 169
2020 10 22 15  02 03 39.315   -27 13 41.10  3.9393 4.7572 141.4 21.4 2.08 169